Time,TemperatureF,DewpointF,PressureIn,WindDirection,WindDirectionDegrees,WindSpeedMPH,WindSpeedGustMPH,Humidity,HourlyPrecipIn,Conditions,Clouds,dailyrainin,SoftwareType,DateUTC
2013-06-16 00:01:00,61.0,38.0,29.99,NNW,344,1.0,3.0,43,0.00,,,0.00,,2013-06-16 07:01:00,
2013-06-16 00:11:00,61.0,38.0,29.99,NNW,344,1.0,3.0,43,0.00,,,0.00,,2013-06-16 07:11:00,
2013-06-16 00:22:00,63.0,30.0,29.98,SW,226,3.0,7.0,29,0.00,,,0.00,,2013-06-16 07:22:00,
2013-06-16 00:32:00,63.0,30.0,29.98,SW,226,3.0,7.0,29,0.00,,,0.00,,2013-06-16 07:32:00,
2013-06-16 00:43:00,63.0,32.0,29.98,SW,231,4.0,11.0,31,0.00,,,0.00,,2013-06-16 07:43:00,
2013-06-16 00:53:00,66.0,33.0,29.97,SW,217,1.0,15.0,29,0.00,,,0.00,,2013-06-16 07:53:00,
2013-06-16 01:01:00,65.0,39.0,29.98,WNW,294,1.0,11.0,38,0.00,,,0.00,,2013-06-16 08:01:00,
2013-06-16 01:33:00,62.0,40.0,29.96,West,269,1.0,11.0,44,0.00,,,0.00,,2013-06-16 08:33:00,
2013-06-16 01:43:00,62.0,40.0,29.96,West,269,1.0,11.0,44,0.00,,,0.00,,2013-06-16 08:43:00,
2013-06-16 01:54:00,62.0,35.0,29.99,West,269,5.0,10.0,37,0.00,,,0.00,,2013-06-16 08:54:00,
2013-06-16 02:01:00,63.0,34.0,29.96,WSW,246,3.0,11.0,34,0.00,,,0.00,,2013-06-16 09:01:00,
2013-06-16 02:11:00,63.0,34.0,29.96,WSW,246,3.0,11.0,34,0.00,,,0.00,,2013-06-16 09:11:00,
2013-06-16 02:22:00,65.0,34.0,29.98,SW,230,8.0,16.0,32,0.00,,,0.00,,2013-06-16 09:22:00,
2013-06-16 02:33:00,65.0,35.0,29.97,WSW,240,6.0,16.0,33,0.00,,,0.00,,2013-06-16 09:33:00,
2013-06-16 02:42:00,65.0,35.0,29.97,WSW,240,6.0,16.0,33,0.00,,,0.00,,2013-06-16 09:42:00,
2013-06-16 02:52:00,64.0,33.0,29.98,West,273,5.0,12.0,31,0.00,,,0.00,,2013-06-16 09:52:00,
2013-06-16 03:01:00,65.0,31.0,29.98,WNW,293,12.0,21.0,28,0.00,,,0.00,,2013-06-16 10:01:00,
2013-06-16 03:11:00,65.0,31.0,29.98,WNW,293,12.0,21.0,28,0.00,,,0.00,,2013-06-16 10:11:00,
2013-06-16 03:22:00,65.0,29.0,29.98,WSW,257,15.0,19.0,26,0.00,,,0.00,,2013-06-16 10:22:00,
2013-06-16 03:33:00,65.0,29.0,29.97,West,269,9.0,21.0,26,0.00,,,0.00,,2013-06-16 10:33:00,
2013-06-16 03:42:00,65.0,29.0,29.97,West,269,9.0,21.0,26,0.00,,,0.00,,2013-06-16 10:42:00,
2013-06-16 03:53:00,65.0,29.0,29.97,West,264,11.0,19.0,26,0.00,,,0.00,,2013-06-16 10:53:00,
2013-06-16 04:02:00,65.0,29.0,29.97,West,264,11.0,20.0,26,0.00,,,0.00,,2013-06-16 11:02:00,
2013-06-16 04:11:00,65.0,29.0,29.97,West,264,11.0,20.0,26,0.00,,,0.00,,2013-06-16 11:11:00,
2013-06-16 04:22:00,65.0,30.0,29.97,West,275,9.0,20.0,27,0.00,,,0.00,,2013-06-16 11:22:00,
2013-06-16 04:33:00,65.0,30.0,29.97,West,275,9.0,20.0,27,0.00,,,0.00,,2013-06-16 11:33:00,
2013-06-16 04:43:00,65.0,30.0,29.97,WNW,296,10.0,21.0,27,0.00,,,0.00,,2013-06-16 11:43:00,
2013-06-16 04:53:00,65.0,30.0,29.96,West,265,11.0,20.0,27,0.00,,,0.00,,2013-06-16 11:53:00,
2013-06-16 05:01:00,65.0,31.0,29.95,WSW,242,7.0,15.0,28,0.00,,,0.00,,2013-06-16 12:01:00,
2013-06-16 05:11:00,65.0,31.0,29.95,WSW,242,7.0,15.0,28,0.00,,,0.00,,2013-06-16 12:11:00,
2013-06-16 05:22:00,65.0,30.0,29.96,West,263,8.0,17.0,27,0.00,,,0.00,,2013-06-16 12:22:00,
2013-06-16 05:32:00,65.0,32.0,29.96,WSW,248,4.0,19.0,29,0.00,,,0.00,,2013-06-16 12:32:00,
2013-06-16 05:42:00,65.0,32.0,29.96,WSW,248,4.0,19.0,29,0.00,,,0.00,,2013-06-16 12:42:00,
2013-06-16 05:53:00,64.0,32.0,29.97,NW,305,9.0,16.0,30,0.00,,,0.00,,2013-06-16 12:53:00,
2013-06-16 06:01:00,65.0,32.0,29.97,WNW,300,10.0,20.0,29,0.00,,,0.00,,2013-06-16 13:01:00,
2013-06-16 06:11:00,65.0,32.0,29.97,WNW,300,10.0,20.0,29,0.00,,,0.00,,2013-06-16 13:11:00,
2013-06-16 06:22:00,65.0,32.0,29.98,WSW,253,12.0,18.0,29,0.00,,,0.00,,2013-06-16 13:22:00,
2013-06-16 06:34:00,66.0,31.0,29.98,West,269,11.0,21.0,27,0.00,,,0.00,,2013-06-16 13:34:00,
2013-06-16 06:42:00,66.0,31.0,29.98,West,269,11.0,21.0,27,0.00,,,0.00,,2013-06-16 13:42:00,
2013-06-16 06:53:00,66.0,31.0,29.99,West,275,12.0,21.0,27,0.00,,,0.00,,2013-06-16 13:53:00,
2013-06-16 07:01:00,67.0,31.0,29.99,West,266,11.0,21.0,26,0.00,,,0.00,,2013-06-16 14:01:00,
2013-06-16 07:12:00,67.0,31.0,29.99,West,266,11.0,21.0,26,0.00,,,0.00,,2013-06-16 14:12:00,
2013-06-16 07:22:00,67.0,32.0,29.99,WNW,293,11.0,18.0,27,0.00,,,0.00,,2013-06-16 14:22:00,
2013-06-16 07:33:00,68.0,32.0,29.99,WNW,294,11.0,19.0,26,0.00,,,0.00,,2013-06-16 14:33:00,
2013-06-16 07:43:00,68.0,32.0,29.99,WNW,294,11.0,19.0,26,0.00,,,0.00,,2013-06-16 14:43:00,
2013-06-16 07:52:00,69.0,32.0,30.01,WNW,287,9.0,16.0,25,0.00,,,0.00,,2013-06-16 14:52:00,
2013-06-16 08:02:00,69.0,32.0,30.01,West,279,12.0,22.0,25,0.00,,,0.00,,2013-06-16 15:02:00,
2013-06-16 08:12:00,69.0,32.0,30.01,West,279,12.0,22.0,25,0.00,,,0.00,,2013-06-16 15:12:00,
2013-06-16 08:22:00,70.0,30.0,30.01,WNW,286,14.0,21.0,23,0.00,,,0.00,,2013-06-16 15:22:00,
2013-06-16 08:33:00,70.0,30.0,30.01,WNW,286,14.0,21.0,23,0.00,,,0.00,,2013-06-16 15:33:00,
2013-06-16 08:43:00,71.0,31.0,30.02,West,270,11.0,19.0,23,0.00,,,0.00,,2013-06-16 15:43:00,
2013-06-16 08:52:00,72.0,31.0,30.02,West,273,12.0,20.0,22,0.00,,,0.00,,2013-06-16 15:52:00,
2013-06-16 09:01:00,73.0,32.0,30.03,West,259,8.0,16.0,22,0.00,,,0.00,,2013-06-16 16:01:00,
2013-06-16 09:11:00,73.0,32.0,30.03,West,259,8.0,16.0,22,0.00,,,0.00,,2013-06-16 16:11:00,
2013-06-16 09:22:00,74.0,30.0,30.02,West,264,13.0,16.0,20,0.00,,,0.00,,2013-06-16 16:22:00,
2013-06-16 09:33:00,75.0,31.0,30.02,WSW,256,4.0,13.0,20,0.00,,,0.00,,2013-06-16 16:33:00,
2013-06-16 09:43:00,75.0,31.0,30.02,WSW,256,4.0,13.0,20,0.00,,,0.00,,2013-06-16 16:43:00,
2013-06-16 09:53:00,75.0,31.0,30.02,SW,225,4.0,15.0,20,0.00,,,0.00,,2013-06-16 16:53:00,
2013-06-16 10:01:00,77.0,33.0,30.03,NW,321,6.0,10.0,20,0.00,,,0.00,,2013-06-16 17:01:00,
2013-06-16 10:11:00,77.0,33.0,30.03,NW,321,6.0,10.0,20,0.00,,,0.00,,2013-06-16 17:11:00,
2013-06-16 10:22:00,78.0,30.0,30.02,NW,305,11.0,18.0,17,0.00,,,0.00,,2013-06-16 17:22:00,
2013-06-16 10:34:00,78.0,30.0,30.02,NW,305,11.0,18.0,17,0.00,,,0.00,,2013-06-16 17:34:00,
2013-06-16 10:43:00,78.0,28.0,30.02,NW,309,11.0,19.0,16,0.00,,,0.00,,2013-06-16 17:43:00,
2013-06-16 10:53:00,79.0,29.0,30.05,WSW,246,8.0,16.0,16,0.00,,,0.00,,2013-06-16 17:53:00,
2013-06-16 11:01:00,79.0,26.0,30.04,WNW,282,11.0,17.0,14,0.00,,,0.00,,2013-06-16 18:01:00,
2013-06-16 11:11:00,79.0,26.0,30.04,WNW,282,11.0,17.0,14,0.00,,,0.00,,2013-06-16 18:11:00,
2013-06-16 11:22:00,79.0,26.0,30.04,NW,318,14.0,18.0,14,0.00,,,0.00,,2013-06-16 18:22:00,
2013-06-16 11:33:00,80.0,27.0,30.05,WNW,297,11.0,21.0,14,0.00,,,0.00,,2013-06-16 18:33:00,
2013-06-16 11:43:00,80.0,27.0,30.05,WNW,297,11.0,21.0,14,0.00,,,0.00,,2013-06-16 18:43:00,
2013-06-16 11:52:00,81.0,26.0,30.04,NW,304,11.0,18.0,13,0.00,,,0.00,,2013-06-16 18:52:00,
2013-06-16 12:01:00,81.0,26.0,30.03,NW,323,13.0,21.0,13,0.00,,,0.00,,2013-06-16 19:01:00,
2013-06-16 12:11:00,81.0,26.0,30.03,NW,323,13.0,21.0,13,0.00,,,0.00,,2013-06-16 19:11:00,
2013-06-16 12:33:00,81.0,24.0,30.03,NW,315,14.0,21.0,12,0.00,,,0.00,,2013-06-16 19:33:00,
2013-06-16 12:53:00,82.0,24.0,30.04,West,264,12.0,21.0,12,0.00,,,0.00,,2013-06-16 19:53:00,
2013-06-16 13:01:00,82.0,24.0,30.03,WNW,290,14.0,22.0,12,0.00,,,0.00,,2013-06-16 20:01:00,
2013-06-16 13:11:00,82.0,24.0,30.03,WNW,290,14.0,22.0,12,0.00,,,0.00,,2013-06-16 20:11:00,
2013-06-16 13:22:00,82.0,24.0,30.02,WNW,285,14.0,20.0,12,0.00,,,0.00,,2013-06-16 20:22:00,
2013-06-16 14:01:00,83.0,23.0,30.03,NW,305,15.0,24.0,11,0.00,,,0.00,,2013-06-16 21:01:00,
2013-06-16 14:11:00,83.0,23.0,30.03,NW,305,15.0,24.0,11,0.00,,,0.00,,2013-06-16 21:11:00,
2013-06-16 14:21:00,83.0,23.0,30.02,WNW,290,16.0,23.0,11,0.00,,,0.00,,2013-06-16 21:21:00,
2013-06-16 14:32:00,83.0,23.0,30.02,WNW,299,13.0,24.0,11,0.00,,,0.00,,2013-06-16 21:32:00,
2013-06-16 14:53:00,84.0,24.0,30.02,WNW,299,14.0,26.0,11,0.00,,,0.00,,2013-06-16 21:53:00,
2013-06-16 15:11:00,83.0,23.0,30.02,West,270,16.0,23.0,11,0.00,,,0.00,,2013-06-16 22:11:00,
2013-06-16 15:32:00,84.0,26.0,30.02,WNW,298,13.0,22.0,12,0.00,,,0.00,,2013-06-16 22:32:00,
2013-06-16 15:41:00,84.0,26.0,30.02,WNW,298,13.0,22.0,12,0.00,,,0.00,,2013-06-16 22:41:00,
2013-06-16 15:52:00,83.0,25.0,30.02,WNW,293,16.0,23.0,12,0.00,,,0.00,,2013-06-16 22:52:00,
2013-06-16 16:01:00,84.0,26.0,30.02,West,278,14.0,24.0,12,0.00,,,0.00,,2013-06-16 23:01:00,
2013-06-16 16:11:00,84.0,26.0,30.02,West,278,14.0,24.0,12,0.00,,,0.00,,2013-06-16 23:11:00,
2013-06-16 16:22:00,83.0,25.0,30.02,West,276,12.0,23.0,12,0.00,,,0.00,,2013-06-16 23:22:00,
2013-06-16 16:52:00,82.0,26.0,30.00,West,280,13.0,23.0,13,0.00,,,0.00,,2013-06-16 23:52:00,
2013-06-16 17:01:00,81.0,26.0,30.01,WNW,300,18.0,25.0,13,0.00,,,0.00,,2013-06-17 00:01:00,
2013-06-16 17:11:00,81.0,26.0,30.01,WNW,292,16.0,22.0,13,0.00,,,0.00,,2013-06-17 00:11:00,
2013-06-16 17:22:00,81.0,26.0,30.01,WNW,292,16.0,22.0,13,0.00,,,0.00,,2013-06-17 00:22:00,
2013-06-16 17:32:00,81.0,26.0,30.00,West,263,14.0,25.0,13,0.00,,,0.00,,2013-06-17 00:32:00,
2013-06-16 17:42:00,81.0,26.0,30.00,West,263,14.0,25.0,13,0.00,,,0.00,,2013-06-17 00:42:00,
2013-06-16 17:52:00,80.0,25.0,30.00,WNW,284,16.0,24.0,13,0.00,,,0.00,,2013-06-17 00:52:00,
2013-06-16 18:02:00,79.0,24.0,30.01,WSW,252,15.0,26.0,13,0.00,,,0.00,,2013-06-17 01:02:00,
2013-06-16 18:11:00,79.0,24.0,30.01,WSW,252,15.0,26.0,13,0.00,,,0.00,,2013-06-17 01:11:00,
2013-06-16 18:22:00,78.0,25.0,30.01,WNW,288,17.0,26.0,14,0.00,,,0.00,,2013-06-17 01:22:00,
2013-06-16 18:32:00,77.0,22.0,30.01,WNW,284,19.0,25.0,13,0.00,,,0.00,,2013-06-17 01:32:00,
2013-06-16 18:43:00,77.0,22.0,30.01,WNW,284,19.0,25.0,13,0.00,,,0.00,,2013-06-17 01:43:00,
2013-06-16 18:53:00,77.0,22.0,30.01,West,281,11.0,25.0,13,0.00,,,0.00,,2013-06-17 01:53:00,
2013-06-16 19:02:00,77.0,20.0,30.02,WNW,286,16.0,23.0,12,0.00,,,0.00,,2013-06-17 02:02:00,
2013-06-16 19:11:00,77.0,20.0,30.02,WNW,286,16.0,23.0,12,0.00,,,0.00,,2013-06-17 02:11:00,
2013-06-16 19:22:00,77.0,18.0,30.02,WSW,257,13.0,24.0,11,0.00,,,0.00,,2013-06-17 02:22:00,
2013-06-16 19:33:00,76.0,16.0,30.02,WSW,249,13.0,22.0,10,0.00,,,0.00,,2013-06-17 02:33:00,
2013-06-16 19:53:00,75.0,15.0,30.02,WSW,254,13.0,25.0,10,0.00,,,0.00,,2013-06-17 02:53:00,
2013-06-16 20:01:00,74.0,20.0,30.03,West,273,16.0,23.0,13,0.00,,,0.00,,2013-06-17 03:01:00,
2013-06-16 20:11:00,74.0,20.0,30.03,West,273,16.0,23.0,13,0.00,,,0.00,,2013-06-17 03:11:00,
2013-06-16 20:22:00,73.0,23.0,30.02,West,275,14.0,27.0,15,0.00,,,0.00,,2013-06-17 03:22:00,
2013-06-16 20:33:00,72.0,22.0,30.03,WNW,292,18.0,25.0,15,0.00,,,0.00,,2013-06-17 03:33:00,
2013-06-16 20:44:00,72.0,22.0,30.03,WNW,292,18.0,25.0,15,0.00,,,0.00,,2013-06-17 03:44:00,
2013-06-16 20:53:00,71.0,24.0,30.01,West,265,15.0,24.0,17,0.00,,,0.00,,2013-06-17 03:53:00,
2013-06-16 21:02:00,71.0,27.0,30.02,WNW,285,11.0,25.0,19,0.00,,,0.00,,2013-06-17 04:02:00,
2013-06-16 21:12:00,71.0,27.0,30.02,WNW,285,11.0,25.0,19,0.00,,,0.00,,2013-06-17 04:12:00,
2013-06-16 21:22:00,70.0,27.0,30.02,West,278,10.0,20.0,20,0.00,,,0.00,,2013-06-17 04:22:00,
2013-06-16 21:33:00,70.0,27.0,30.02,West,278,10.0,20.0,20,0.00,,,0.00,,2013-06-17 04:33:00,
2013-06-16 21:42:00,70.0,27.0,30.03,WNW,285,13.0,22.0,20,0.00,,,0.00,,2013-06-17 04:42:00,
2013-06-16 21:53:00,71.0,28.0,30.04,West,261,10.0,20.0,20,0.00,,,0.00,,2013-06-17 04:53:00,
2013-06-16 22:02:00,70.0,29.0,30.04,NW,307,9.0,20.0,22,0.00,,,0.00,,2013-06-17 05:02:00,
2013-06-16 22:11:00,70.0,29.0,30.04,NW,307,9.0,20.0,22,0.00,,,0.00,,2013-06-17 05:11:00,
2013-06-16 22:22:00,70.0,29.0,30.04,WNW,290,14.0,23.0,22,0.00,,,0.00,,2013-06-17 05:22:00,
2013-06-16 22:33:00,70.0,29.0,30.03,WNW,287,20.0,24.0,22,0.00,,,0.00,,2013-06-17 05:33:00,
2013-06-16 22:44:00,70.0,29.0,30.03,WNW,287,20.0,24.0,22,0.00,,,0.00,,2013-06-17 05:44:00,
2013-06-16 22:53:00,70.0,30.0,30.04,West,274,16.0,28.0,23,0.00,,,0.00,,2013-06-17 05:53:00,
2013-06-16 23:02:00,70.0,29.0,30.03,WNW,292,18.0,26.0,22,0.00,,,0.00,,2013-06-17 06:02:00,
2013-06-16 23:12:00,70.0,29.0,30.03,WNW,292,18.0,26.0,22,0.00,,,0.00,,2013-06-17 06:12:00,
2013-06-16 23:22:00,70.0,32.0,30.03,WNW,292,17.0,31.0,24,0.00,,,0.00,,2013-06-17 06:22:00,
2013-06-16 23:32:00,70.0,30.0,30.04,West,263,16.0,28.0,23,0.00,,,0.00,,2013-06-17 06:32:00,
2013-06-16 23:43:00,70.0,30.0,30.04,West,263,16.0,28.0,23,0.00,,,0.00,,2013-06-17 06:43:00,
2013-06-16 23:53:00,70.0,32.0,30.03,NW,307,22.0,32.0,24,0.00,,,0.00,,2013-06-17 06:53:00,